Location: Falconara Alta
(43.6167°N, 13.4000°E)
Time: 13:33:15
(UTC+00:00)

Cosmos 1812 Rocket - Pass Details

Date: 09 April 2020
Orbit: 607 x 631 km, 82.5° (Epoch: 26 May)

Event Time Altitude Azimuth Distance (km) Brightness Sun altitude
Exits shadow 19:25:18 39° 117° (ESE) 926 3.9 -18.0°
Maximum altitude 19:25:58 42° 92° (E) 880 3.9 -18.1°
Drops below altitude 10° 19:30:03 10° 22° (NNE) 1,967 6.2 -18.7°
Sets 19:32:21 0° 16° (NNE) 2,875 7.2 -19.1°
